Baltimore, MD

9:47 AM EST on February 23, 2017 (GMT -0500)
Baltimore-Washington International

Weather History for KBWI - May, 2013

Change the Weather History Date:

Sunday, May 5, 2013

  Actual Average Record
Temperature  
Mean Temperature 54 °F 60 °F  
Max Temperature 62 °F 71 °F 92 °F (1930)
Min Temperature 45 °F 49 °F 34 °F (1966)
Degree Days  
Heating Degree Days 11 6  
Month to date heating degree days 46 34  
Since 1 July heating degree days 4396 4649  
Cooling Degree Days 0 1  
Month to date cooling degree days 0 5  
Year to date cooling degree days 26 19  
Growing Degree Days 4 (Base 50)    
Moisture  
Dew Point 40 °F    
Average Humidity 65    
Maximum Humidity 83    
Minimum Humidity 46    
Precipitation  
Precipitation 0.00 in 0.12 in 1.67 in (1989)
Month to date precipitation 0.00 0.58  
Year to date precipitation 10.43 13.62  
Snow  
Snow 0.00 in 0.00 in - ()
Month to date snowfall 0.0 0.0  
Since 1 July snowfall 8.0 20.1  
Snow Depth 0.00 in    
Sea Level Pressure  
Sea Level Pressure 30.22 in    
Wind  
Wind Speed 10 mph (East)    
Max Wind Speed 18 mph    
Max Gust Speed 23 mph    
Visibility 10 miles    
Events      
T = Trace of Precipitation, MM = Missing Value Source: NWS Daily Summary

Daily Weather History Graph

Daily Weather History Graph

Search for Another Location

Airport or City:

Trip Planner

Search our weather history database for the weather conditions in past years. The results will help you decide how hot, cold, wet, or windy it might be!

Date:

Astronomy

May. 05, 2013 Rise Set
Actual Time 6:03 AM EDT 8:03 PM EDT
Civil Twilight 5:34 AM EDT 8:33 PM EDT
Nautical Twilight 4:58 AM EDT 9:09 PM EDT
Astronomical Twilight 4:19 AM EDT 9:47 PM EDT
Moon 3:30 AM EDT (5/5) 4:02 PM EDT (5/5)
Length of Visible Light 14h 59m
Length of Day
14h 00m
Waning Crescent, 18% of the Moon is Illuminated
May 5
Waning Crescent
May 9
New
May 18
First Quarter
May 25
Full
May 31
Last Quarter

Hourly Weather History & Observations

Time (EDT) Temp. Windchill Dew Point Humidity Pressure Visibility Wind Dir Wind Speed Gust Speed Precip Events Conditions
12:54 AM 48.0 °F - 41.0 °F 77% 30.24 in 10.0 mi East 4.6 mph - N/A   Scattered Clouds
1:54 AM 46.9 °F - 39.9 °F 77% 30.23 in 10.0 mi East 5.8 mph - N/A   Scattered Clouds
2:45 AM 48.2 °F - 42.8 °F 82% 30.22 in 10.0 mi East 10.4 mph - N/A   Mostly Cloudy
2:54 AM 48.0 °F - 42.1 °F 80% 30.22 in 10.0 mi East 8.1 mph - N/A   Mostly Cloudy
3:54 AM 48.0 °F - 39.9 °F 74% 30.22 in 10.0 mi ENE 10.4 mph - N/A   Mostly Cloudy
4:54 AM 46.9 °F - 39.0 °F 74% 30.22 in 10.0 mi ENE 8.1 mph - N/A   Mostly Cloudy
5:54 AM 45.0 °F 40.6 °F 39.0 °F 80% 30.22 in 10.0 mi East 8.1 mph - N/A   Mostly Cloudy
6:54 AM 46.9 °F - 37.9 °F 71% 30.24 in 10.0 mi East 10.4 mph - N/A   Mostly Cloudy
7:54 AM 48.0 °F - 37.9 °F 68% 30.24 in 10.0 mi East 13.8 mph - N/A   Mostly Cloudy
8:54 AM 48.9 °F - 37.9 °F 66% 30.25 in 10.0 mi East 15.0 mph 23.0 mph N/A   Mostly Cloudy
9:54 AM 50.0 °F - 37.9 °F 63% 30.26 in 10.0 mi East 15.0 mph 19.6 mph N/A   Overcast
10:54 AM 50.0 °F - 37.9 °F 63% 30.26 in 9.0 mi ENE 9.2 mph 19.6 mph N/A   Mostly Cloudy
11:54 AM 54.0 °F - 37.9 °F 55% 30.25 in 10.0 mi East 12.7 mph - N/A   Mostly Cloudy
12:54 PM 55.0 °F - 37.9 °F 53% 30.24 in 10.0 mi ENE 10.4 mph 17.3 mph N/A   Mostly Cloudy
1:54 PM 57.2 °F - 39.2 °F 51% 30.22 in 10.0 mi ENE 8.1 mph - N/A   Scattered Clouds
2:54 PM 59.0 °F - 39.0 °F 48% 30.21 in 10.0 mi NE 11.5 mph 16.1 mph N/A   Scattered Clouds
3:54 PM 60.1 °F - 39.9 °F 47% 30.19 in 10.0 mi East 11.5 mph - N/A   Scattered Clouds
4:54 PM 61.0 °F - 41.0 °F 48% 30.18 in 10.0 mi East 12.7 mph - N/A   Scattered Clouds
5:54 PM 61.0 °F - 41.0 °F 48% 30.16 in 10.0 mi East 9.2 mph - N/A   Scattered Clouds
6:54 PM 60.1 °F - 42.1 °F 51% 30.17 in 10.0 mi ESE 10.4 mph - N/A   Scattered Clouds
7:54 PM 57.2 °F - 42.8 °F 59% 30.18 in 10.0 mi ESE 8.1 mph - N/A   Scattered Clouds
8:54 PM 55.0 °F - 44.1 °F 67% 30.19 in 10.0 mi ESE 5.8 mph - N/A   Scattered Clouds
9:54 PM 53.1 °F - 46.0 °F 77% 30.19 in 10.0 mi East 10.4 mph - N/A   Scattered Clouds
10:54 PM 52.0 °F - 42.1 °F 69% 30.19 in 10.0 mi East 9.2 mph - N/A   Scattered Clouds
11:54 PM 50.0 °F - 44.1 °F 80% 30.20 in 10.0 mi East 5.8 mph - N/A   Partly Cloudy